Briefing drone pour Sainte-sigolene

Rechercher une autre localisation

Conditions de vol :


Nous sommes le : Samedi 23 octobre 2021
Il est 06:31 UTC (08:31 LT)

Lever de soleil : 05:43 UTC (07:43 LT)
Coucher de soleil : 17:11 UTC (19:11 LT)

Météo

L'essentiel des conditions de vol

VIGILANCE MÉTÉO FRANCE - Haute-Loire (43)
Pas de vigilances particulieres
CARTE TEMSI
CARTES DES FRONTS
METAR de LFMH
LFMH 230600Z AUTO 00000KT 9999 OVC035 M01/M02 Q1026

Date d'émission: 23/10/2021
Heure d'émission: 06:00 UTC
Vent: Calme
Visibilité horizontale: > 10 km
Plafond :
- Couvert à 3500ft (1067m)
Température: -1 °C
Point de rosée: -2 °C
Humidité: 93%
Pression (QNH): 1026 hPa
TAF de LFMH
LFMH 161901Z 1619/1712 CNL

Conditions prévues :

Heure d'émission : Bulletin éffectué le 16 à 19:00 UTC
Prévision : Valide du 16 a 19:00 UTC au 17 a 12:00 UTC
Nuages : à 0ft (0 m)
WEBCAM POUR SAINTE-SIGOLENE

Réglementation

Voler en sécurité

CARTES AERONAUTIQUE 1/500.000
CARTES VAC (LFMH)
SUP AIP




Chargement des AIP...
NOTAM (SAINTE-SIGOLENE + Terrain à proximité / FIR )




Chargement des NOTAMS...
CONTACT PREFECTURE 43


Avertissement : Les données mises à disposition sont indicatives. Oxygène Drone ne pourra être tenu responsable de dégâts causés aux biens et aux personnes.